{"data":{"norad_id":67561,"intl_designator":"2026-016A","name":"STARLINK-36621","alt_names":[],"object_type":"PAYLOAD","status":"ACTIVE","operator":null,"country":"US","launch_date":"2026-01-25","launch_site_code":"AFWTR","launch_vehicle":null,"mission":null,"orbit_class":"UNKNOWN","rcs_meters":null,"size_class":null,"mass_kg":null,"dimensions":null,"purposes":["comms"],"wikipedia_slug":null,"has_3d_model":false,"image_url":null,"decayed_at":null,"tle_current":{"epoch":"2026-05-25T02:47:36.573792Z","epoch_age_seconds":65806,"freshness":"FRESH","line1":"1 67561U 26016A   26145.11639553  .00019138  00000+0  59355-3 0  9992","line2":"2 67561  97.2839 205.3961 0000780 121.8463 238.2855 15.33448861 18578","mean_motion":15.33448861,"eccentricity":7.8e-5,"inclination_deg":97.2839,"raan_deg":205.3961,"arg_perigee_deg":121.8463,"mean_anomaly_deg":238.2855,"bstar":0.00059355,"rev_number":1857,"period_min":93.905968214743,"perigee_km":464.9978807251,"apogee_km":466.06549304026,"semimajor_km":6843.6686868827,"source":"CELESTRAK","updated_at":"2026-05-25T13:38:21.612402Z"}}}